Regional Weather Roundup
Issued by NWS Sioux Falls, SD

Home | Current Version | Previous Version | Text Only | Print | Product List | Glossary On
Versions: 1 2 3 4 5 6 7 8 9 10 11 12 13 14 15 16 17 18 19 20 21 22 23 24 25 26 27 28 29 30 31 32 33 34 35 36 37 38 39 40 41 42 43 44 45 46 47 48 49 50
000
ASUS43 KFSD 301110
RWRFSD

WEATHER ROUNDUP FOR SE SOUTH DAKOTA/SW MINNESOTA/NW IOWA
NATIONAL WEATHER SERVICE SIOUX FALLS SD
600 AM CDT SAT JUL 30 2016

NOTE: "FAIR" INDICATES FEW OR NO CLOUDS BELOW 12,000 FEET WITH NO
SIGNIFICANT WEATHER AND OR OBSTRUCTIONS TO VISIBILITY.


SDZ038>040-050-052>070-301200-
SOUTHEAST SOUTH DAKOTA

CITY           SKY/WX    TMP DP  RH WIND       PRES   REMARKS
BROOKINGS      CLEAR     57  54  89 SE5       30.03S
CHAMBERLAIN    CLEAR     60  59  97 SE6       29.98F
HURON          CLEAR     58  55  90 SE7       29.99F
MADISON        FAIR      55  55 100 S5        30.04S
MITCHELL       CLEAR     59  56  89 SE6       30.01S
SIOUX FALLS    PTCLDY    54  52  93 NE3       30.03S
WINNER         RAIN      65  62  90 S13       29.98R FOG
YANKTON        CLEAR     59  55  88 CALM      30.01S
$$

MNZ071-072-080-081-089-090-097-098-301200-
SOUTHWEST MINNESOTA

CITY           SKY/WX    TMP DP  RH WIND       PRES   REMARKS
FAIRMONT       PTCLDY    55  45  67 CALM      30.02S
JACKSON        CLEAR     54  50  87 CALM      30.04S
LUVERNE        CLEAR     50  46  87 CALM      30.05S
MARSHALL       PTCLDY    57  54  89 S5        30.03S
MONTEVIDEO     CLEAR     57  55  94 CALM      30.04S
REDWOOD FALLS  CLEAR     56  53  90 CALM      30.03S
TRACY          PTCLDY    60  56  87 SW5       30.04S
WINDOM         CLEAR     54  52  94 CALM      30.04S
WORTHINGTON    CLEAR     51  49  92 W6        30.05S
$$

IAZ001>003-012>014-020>022-031-032-NEZ013-014-SDZ071-301200-
NORTHWEST IOWA

CITY           SKY/WX    TMP DP  RH WIND       PRES   REMARKS
CHEROKEE       CLEAR     56  56 100 CALM      30.03S FOG
DENISON        CLEAR     57  57 100 CALM      30.01S FOG
ESTHERVILLE    PTCLDY    55  54  96 CALM      30.03S
LE MARS        CLEAR     57  55  94 CALM      30.03F
SHELDON        CLEAR     52  52 100 CALM      30.02F
SIOUX CITY     CLEAR     61  59  93 E3        30.01F
SPENCER        CLEAR     52  50  93 CALM      30.03F
STORM LAKE     CLEAR     59  57  94 N6        30.04R
$$

ABBREVIATIONS USED IN REMARKS
   TC - TEMPERATURE IN CELSIUS
  WCI - WIND CHILL INDEX
   HX - HEAT INDEX
  VSB - VISIBILITY





USA.gov is the U.S. government's official web portal to all federal, state and local government web resources and services.